Chievres, Belgium

12:58 PM CEST on April 29, 2017 (GMT +0200)
Chievres Air Base

Weather History for EBCV - June, 2013

Change the Weather History Date:

Friday, June 21, 2013

  Actual Average Record
Temperature  
Mean Temperature 61 °F -  
Max Temperature 64 °F 64 °F 82 °F (1998)
Min Temperature 58 °F 54 °F 41 °F (2014)
Degree Days  
Heating Degree Days 4    
Growing Degree Days 11 (Base 50)    
Moisture  
Dew Point 58 °F    
Average Humidity 89    
Maximum Humidity 100    
Minimum Humidity 70    
Precipitation  
Precipitation 0.04 in - - ()
Sea Level Pressure  
Sea Level Pressure 29.88 in    
Wind  
Wind Speed 10 mph ()    
Max Wind Speed 16 mph    
Max Gust Speed -    
Visibility 6.3 miles    
Events Rain    
Averages and records for this station are not official NWS values.
T = Trace of Precipitation, MM = Missing Value Source: Averaged Metar Reports

Daily Weather History Graph

Daily Weather History Graph

Search for Another Location

Airport or City:

Trip Planner

Search our weather history database for the weather conditions in past years. The results will help you decide how hot, cold, wet, or windy it might be!

Date:

Astronomy

Jun. 21, 2013 Rise Set
Actual Time 5:32 AM CEST 10:00 PM CEST
Civil Twilight 4:46 AM CEST 10:46 PM CEST
Nautical Twilight 3:37 AM CEST 11:55 PM CEST
Astronomical Twilight 2:18 AM CEST 1:14 AM CEST
Moon 7:44 PM CEST (6/21) 3:46 AM CEST (6/21)
Length of Visible Light 17h 59m
Length of Day
16h 28m
Waxing Gibbous, 94% of the Moon is Illuminated
Jun 21
Waxing Gibbous
Jun 23
Full
Jun 30
Last Quarter
Jul 8
New
Jul 16
First Quarter

Hourly Weather History & Observations

Time (CEST) Temp. Dew Point Humidity Pressure Visibility Wind Dir Wind Speed Gust Speed Precip Events Conditions
12:25 AM 60.8 °F 60.8 °F 100% 29.83 in 6.2 mi North - - N/A   Mostly Cloudy
12:58 AM 60.8 °F 60.8 °F 100% 29.83 in 5.0 mi North - - N/A Rain Rain Showers
1:25 AM 62.6 °F 60.8 °F 94% 29.83 in 3.7 mi North - - N/A Rain Light Rain Showers
1:54 AM 62.6 °F 62.6 °F 100% 29.83 in - North - - N/A Rain Light Rain
2:00 AM 62 °F 62 °F 98% 29.83 in 3 mi Calm Calm - - Rain Light Rain
2:03 AM 62.6 °F 62.6 °F 100% 29.80 in - North - - N/A Rain Light Rain
2:09 AM 62.6 °F 62.6 °F 100% 29.80 in - North - - N/A Rain Light Rain
2:15 AM 62.6 °F 62.6 °F 100% 29.80 in - North - - N/A Rain Rain
2:25 AM 62.6 °F 62.6 °F 100% 29.80 in - North - - N/A Rain Rain
2:32 AM 62.6 °F 60.8 °F 94% 29.80 in - North - - N/A Rain Rain
2:46 AM 60.8 °F 59.0 °F 94% 29.80 in 3.1 mi North - - N/A Rain Light Rain
3:03 AM 60.8 °F 59.0 °F 94% 29.80 in 5.0 mi North - - N/A Rain Rain
3:10 AM 60.8 °F 59.0 °F 94% 29.83 in 4.3 mi North - - N/A Rain Rain
3:22 AM 60.8 °F 59.0 °F 94% 29.80 in - North - - N/A Rain Heavy Rain
3:25 AM 60.8 °F 59.0 °F 94% 29.83 in - North - - N/A Rain Heavy Rain
3:34 AM 59.0 °F 59.0 °F 100% 29.83 in - North - - N/A Rain Heavy Rain
3:42 AM 60.8 °F 59.0 °F 94% 29.83 in - North - - N/A Rain Heavy Rain
4:03 AM 59.0 °F 59.0 °F 100% 29.83 in 3.1 mi North - - N/A Rain Heavy Rain
4:25 AM 59.0 °F 59.0 °F 100% 29.83 in 3.7 mi North - - N/A Rain Heavy Rain
4:55 AM 59.0 °F 57.2 °F 94% 29.83 in 5.0 mi North - - N/A Rain Rain
5:00 AM 58 °F 58 °F 100% 29.83 in 4 mi Calm Calm - - Rain Rain
5:25 AM 59.0 °F 57.2 °F 94% 29.83 in 6.2 mi North - - N/A Rain Rain
5:49 AM 59.0 °F 57.2 °F 94% 29.83 in 5.6 mi SW 8.1 mph - N/A Rain Light Rain
6:25 AM 59.0 °F 57.2 °F 94% 29.83 in 4.3 mi SW 6.9 mph - N/A Rain Light Rain
7:23 AM 59.0 °F 57.2 °F 94% 29.83 in 6.2 mi SW 9.2 mph - N/A Rain Light Rain
7:25 AM 59.0 °F 59.0 °F 100% 29.83 in 4.3 mi SW 9.2 mph - N/A Rain Light Rain
8:00 AM 59 °F 58 °F 94% 29.86 in 5 mi SW 8.9 mph - - Rain Light Rain
8:25 AM 59.0 °F 57.2 °F 94% 29.86 in 6.2 mi SW 10.4 mph - N/A Rain Light Rain
9:25 AM 59.0 °F 57.2 °F 94% 29.86 in 6.2 mi SW 10.4 mph - N/A   Mostly Cloudy
10:25 AM 60.8 °F 59.0 °F 94% 29.86 in 6.2 mi SW 11.5 mph - N/A   Mostly Cloudy
11:00 AM 62 °F 60 °F 89% 29.88 in 9 mi SW 8.9 mph - - Rain Light Rain
11:25 AM 62.6 °F 59.0 °F 88% 29.89 in 6.2 mi WSW 12.7 mph - N/A   Mostly Cloudy
11:39 AM 62.6 °F 59.0 °F 88% 29.89 in 6.2 mi West 11.5 mph - N/A   Mostly Cloudy
12:25 PM 60.8 °F 57.2 °F 88% 29.92 in 6.2 mi WSW 12.7 mph - N/A   Mostly Cloudy
1:25 PM 60.8 °F 55.4 °F 82% 29.92 in 6.2 mi SW 16.1 mph - N/A   Mostly Cloudy
1:40 PM 62.6 °F 57.2 °F 82% 29.92 in 6.2 mi SW 15.0 mph - N/A   Mostly Cloudy
2:00 PM 64 °F 57 °F 70% 29.93 in 9 mi SW 13.4 mph - -   Partly Cloudy
2:10 PM 62.6 °F 57.2 °F 82% 29.92 in 6.2 mi WSW 16.1 mph - N/A   Mostly Cloudy
2:25 PM 62.6 °F 57.2 °F 82% 29.92 in 6.2 mi WSW 13.8 mph - N/A   Mostly Cloudy
2:44 PM 64.4 °F 55.4 °F 73% 29.95 in 6.2 mi WSW 16.1 mph - N/A   Mostly Cloudy
3:25 PM 62.6 °F 55.4 °F 77% 29.95 in 6.2 mi WSW 16.1 mph - N/A   Mostly Cloudy
4:24 PM 62.6 °F 55.4 °F 77% 29.95 in 6.2 mi WSW 15.0 mph - N/A   Mostly Cloudy
4:25 PM 62.6 °F 55.4 °F 77% 29.95 in 6.2 mi WSW 15.0 mph - N/A   Mostly Cloudy
4:53 PM 62.6 °F 55.4 °F 77% 29.95 in 6.2 mi WSW 13.8 mph - N/A   Mostly Cloudy
5:00 PM 63 °F 56 °F 70% 29.97 in 16 mi WSW 13.4 mph - -   Mostly Cloudy
5:12 PM 64.4 °F 55.4 °F 73% 29.98 in 6.2 mi North - - N/A   Mostly Cloudy
5:25 PM 64.4 °F 55.4 °F 73% 29.95 in 6.2 mi North - - N/A   Mostly Cloudy
5:52 PM 62.6 °F 53.6 °F 72% 29.98 in 6.2 mi North - - N/A   Mostly Cloudy
6:25 PM 60.8 °F 55.4 °F 82% 29.98 in 6.2 mi North - - N/A   Mostly Cloudy
6:28 PM 60.8 °F 53.6 °F 77% 29.98 in 6.2 mi North - - N/A   Mostly Cloudy
7:25 PM 60.8 °F 55.4 °F 82% 29.98 in 6.2 mi North - - N/A   Overcast
8:00 PM 61 °F 55 °F 73% 29.99 in 12 mi Calm Calm - -   Scattered Clouds
9:25 PM 60.8 °F 55.4 °F 82% 29.98 in 6.2 mi North - - N/A   Mostly Cloudy
10:25 PM 60.8 °F 55.4 °F 82% 30.01 in 6.2 mi North - - N/A   Mostly Cloudy
11:00 PM 60 °F 56 °F 81% 30.01 in 17 mi Calm Calm - -   Scattered Clouds
11:25 PM 59.0 °F 55.4 °F 88% 30.01 in 6.2 mi North - - N/A   Partly Cloudy